THURAYA-4

Last updated on Sun Apr 12 2026 00:02:57 GMT+0000 (Coordinated Universal Time)

1 62483U 25001A 26101.30600450 .00000140 00000+0 00000+0 0 9992 2 62483 0.0380 56.9376 0000243 59.8081 237.3037 1.00273184 3501
UTC large
Height (km)
Speed (km/s)
/
Latitude / Longitude
Inclination (degrees)
Orbital Period (minutes)
Azimuth
Elevation
Range (km)
Doppler Factor

Next 0 passes for location: London (51.5072 / 0.1276)

Sorry there are no passes over London.
THURAYA-4